Location: Crescent
(42.8242°N, 73.7329°W)
Time: 15:31:27
(UTC+00:00)

Courier 1B - Pass Details

Date: 22 February 2026
Orbit: 962 x 1208 km, 28.3° (Epoch: 7 March)

Event Time Altitude Azimuth Distance (km) Brightness Sun altitude
Rises 01:18:10 0° 247° (WSW) 3,871 11.3 -30.5°
Reaches altitude 10° 01:21:21 10° 235° (SW) 2,957 10.4 -31.1°
Enters shadow 01:26:17 25° 193° (SSW) 2,101 9.1 -32.0°
